Location: Wellington
(41.3000°S, 174.7830°E)
Time: 10:37:50
(UTC+12:00)

SL-16 R/B - Pass Details

Date: 24 January 2019
Orbit: 842 x 846 km, 71.0° (Epoch: 19 April)

Event Time Altitude Azimuth Distance (km) Brightness Sun altitude
Rises 22:39:08 0° 319° (NW) 3,403 5.3 -17.3°
Reaches altitude 10° 22:41:41 10° 313° (NW) 2,475 4.6 -17.6°
Maximum altitude 22:47:07 45° 240° (WSW) 1,152 3.3 -18.3°
Drops below altitude 10° 22:52:38 10° 167° (SSE) 2,502 5.1 -19.0°
Sets 22:55:13 0° 161° (SSE) 3,443 5.8 -19.3°
